FW2272 Weather Reports


Display with metric or nautical units.
time (UTC)temp
F
wind
direction
speed
MPH
gust
MPH
rain 1hr
in
rain 24hr
in
rain mn
in
humidity
%
barometer
mb
20260508211213 76 103 6.0 0.0 0.00 0.00 0.00 79 1012.2
20260508210715 75 65 4.0 0.0 0.00 0.00 0.00 79 1012.2
20260508210213 76 117 6.0 0.0 0.00 0.00 0.00 78 1012.5
20260508205715 76 134 6.0 0.0 0.00 0.00 0.00 78 1012.5
20260508205213 75 148 6.0 0.0 0.00 0.00 0.00 79 1012.5
20260508204717 75 110 5.0 0.0 0.00 0.00 0.00 79 1012.5
20260508204213 75 173 7.0 0.0 0.00 0.00 0.00 79 1012.5
20260508203714 75 105 6.0 0.0 0.00 0.00 0.00 78 1012.9
20260508193711 75 153 4.0 0.0 0.00 0.00 0.00 80 1012.9
20260508193212 74 218 5.0 0.0 0.00 0.00 0.00 80 1013.2
20260508192712 74 70 5.0 0.0 0.00 0.00 0.00 80 1013.2
20260508192213 74 202 4.0 0.0 0.00 0.00 0.00 81 1013.2
20260508191710 74 72 7.0 0.0 0.00 0.00 0.00 80 1013.2
20260508191213 74 126 5.0 0.0 0.00 0.00 0.00 80 1013.2
20260508190713 74 56 6.0 0.0 0.00 0.00 0.00 80 1013.2
20260508190213 74 158 4.0 0.0 0.00 0.00 0.00 79 1013.2
20260508185711 74 257 5.0 0.0 0.00 0.00 0.00 79 1013.2
20260508185210 74 179 5.0 0.0 0.00 0.00 0.00 80 1013.2
20260508184713 73 47 5.0 0.0 0.00 0.00 0.00 80 1013.5
20260508184212 73 230 5.0 0.0 0.00 0.00 0.00 80 1013.5
20260508183711 73 137 6.0 0.0 0.00 0.00 0.00 80 1013.5
20260508183214 73 207 3.0 0.0 0.00 0.00 0.00 79 1013.5
20260508182711 74 91 5.0 0.0 0.00 0.00 0.00 79 1013.5
20260508182226 74 340 8.0 0.0 0.00 0.00 0.00 80 1013.5
20260508181711 72 192 6.0 0.0 0.00 0.00 0.00 82 1013.5
20260508181212 72 139 4.0 0.0 0.00 0.00 0.00 83 1013.9
20260508180710 72 96 6.0 0.0 0.00 0.00 0.00 83 1013.9
20260508180211 71 109 6.0 0.0 0.00 0.00 0.00 84 1014.2
20260508175710 71 174 4.0 0.0 0.00 0.00 0.00 84 1014.2
20260508175209 71 174 3.0 0.0 0.00 0.00 0.00 84 1014.2
20260508174711 71 132 3.0 0.0 0.00 0.00 0.00 84 1014.2
20260508174212 71 131 3.0 0.0 0.00 0.00 0.00 84 1014.2
20260508173712 70 143 2.0 0.0 0.00 0.00 0.00 84 1014.6
20260508173211 70 110 3.0 0.0 0.00 0.00 0.00 84 1014.6
20260508172719 70 239 2.0 0.0 0.00 0.00 0.00 84 1014.6
20260508172221 70 245 2.0 0.0 0.00 0.00 0.00 84 1014.6
20260508171724 70 249 3.0 0.0 0.00 0.00 0.00 84 1014.6
20260508171220 70 98 4.0 0.0 0.00 0.00 0.00 84 1014.6
20260508170722 69 220 2.0 0.0 0.00 0.00 0.00 84 1014.6
20260508170223 69 195 3.0 0.0 0.00 0.00 0.00 84 1014.6
20260508165719 69 268 2.0 0.0 0.00 0.00 0.00 85 1014.6
20260508165220 69 281 4.0 0.0 0.00 0.00 0.00 85 1014.9
20260508164719 68 250 3.0 0.0 0.00 0.00 0.00 86 1014.6
20260508164217 68 249 4.0 0.0 0.00 0.00 0.00 87 1014.9
20260508163719 67 249 4.0 0.0 0.00 0.00 0.00 87 1014.9
20260508163219 67 258 3.0 0.0 0.00 0.00 0.00 87 1014.9
20260508162720 67 267 3.0 0.0 0.00 0.00 0.00 88 1014.9
20260508162218 66 240 3.0 0.0 0.00 0.00 0.00 88 1014.9
20260508161718 66 299 4.0 0.0 0.00 0.00 0.00 89 1015.2
20260508161219 66 263 6.0 0.0 0.00 0.00 0.00 89 1015.2
20260508160717 65 275 3.0 0.0 0.00 0.00 0.00 89 1015.2
20260508160216 65 250 3.0 0.0 0.00 0.00 0.00 90 1015.2
20260508155720 65 280 3.0 0.0 0.00 0.00 0.00 90 1015.2
20260508155319 64 290 3.0 0.0 0.00 0.00 0.00 90 1015.6
20260508154216 64 238 3.0 0.0 0.00 0.00 0.00 90 1015.6
20260508153918 64 234 4.0 0.0 0.00 0.00 0.00 90 1015.6
20260508152216 63 262 3.0 0.0 0.00 0.00 0.00 90 1015.9
20260508151715 63 274 4.0 0.0 0.00 0.00 0.00 90 1016.3
20260508151215 63 230 3.0 0.0 0.00 0.00 0.00 90 1015.9
20260508150715 63 251 4.0 0.0 0.00 0.00 0.00 90 1015.9
20260508150216 63 308 3.0 0.0 0.00 0.00 0.00 90 1015.9
20260508145716 63 221 3.0 0.0 0.00 0.00 0.00 90 1015.9
20260508145214 63 9 3.0 0.0 0.00 0.00 0.00 90 1015.9
20260508144714 62 263 3.0 0.0 0.00 0.00 0.00 90 1015.9
20260508144213 62 306 3.0 0.0 0.00 0.00 0.00 90 1015.9
20260508143712 62 247 3.0 0.0 0.00 0.00 0.00 90 1015.9
20260508143214 62 245 4.0 0.0 0.00 0.00 0.00 89 1015.9
20260508142714 62 317 5.0 0.0 0.00 0.00 0.00 89 1015.9
20260508142213 62 265 3.0 0.0 0.00 0.00 0.00 89 1016.3
20260508141716 62 259 4.0 0.0 0.00 0.00 0.00 89 1016.3
20260508141214 62 280 3.0 0.0 0.00 0.00 0.00 88 1015.9
20260508140715 62 287 3.0 0.0 0.00 0.00 0.00 88 1016.3
20260508140212 62 290 3.0 0.0 0.00 0.00 0.00 88 1016.3
20260508135715 62 287 4.0 0.0 0.00 0.00 0.00 88 1016.3
20260508135212 62 234 5.0 0.0 0.00 0.00 0.00 88 1015.9
20260508134713 62 255 4.0 0.0 0.00 0.00 0.00 87 1015.9
20260508134212 62 244 3.0 0.0 0.00 0.00 0.00 87 1015.9
20260508133713 62 251 3.0 0.0 0.00 0.00 0.00 88 1015.9
20260508133214 62 239 4.0 0.0 0.00 0.00 0.00 87 1015.9
20260508132711 62 203 3.0 0.0 0.00 0.00 0.00 87 1015.6
20260508132212 62 237 2.0 0.0 0.00 0.00 0.00 87 1015.6
20260508131712 62 278 4.0 0.0 0.00 0.00 0.00 87 1015.6
20260508131211 62 260 2.0 0.0 0.00 0.00 0.00 87 1015.2
20260508130712 62 215 0.0 0.0 0.00 0.00 0.00 87 1015.2
20260508130213 62 194 3.0 0.0 0.00 0.00 0.00 87 1015.6
20260508125710 62 143 2.0 0.0 0.00 0.00 0.00 87 1015.6
20260508125212 62 185 0.0 0.0 0.00 0.00 0.00 87 1015.9
20260508124713 62 243 2.0 0.0 0.00 0.00 0.00 87 1015.9
20260508124211 62 207 1.0 0.0 0.00 0.00 0.00 87 1015.9
20260508123712 62 237 3.0 0.0 0.00 0.00 0.00 87 1015.9
20260508123210 62 219 2.0 0.0 0.00 0.00 0.00 87 1015.9
20260508122714 62 284 3.0 0.0 0.00 0.00 0.00 87 1015.6
20260508122213 62 215 2.0 0.0 0.00 0.00 0.00 86 1015.6
20260508121712 62 228 2.0 0.0 0.00 0.00 0.00 86 1015.9
20260508121211 62 211 0.0 0.0 0.00 0.00 0.00 86 1015.9
20260508120711 62 207 1.0 0.0 0.00 0.00 0.00 86 1015.9
20260508120211 62 196 0.0 0.0 0.00 0.00 0.00 86 1016.3
20260508115711 62 196 2.0 0.0 0.00 0.00 0.00 86 1016.3
20260508115212 62 227 2.0 0.0 0.00 0.00 0.00 86 1016.6
20260508114713 62 219 2.0 0.0 0.00 0.00 0.00 86 1016.3
20260508114212 62 225 2.0 0.0 0.00 0.00 0.00 86 1015.9
20260508113712 61 231 2.0 0.0 0.00 0.00 0.00 86 1015.9
20260508113210 61 169 5.0 0.0 0.00 0.00 0.00 86 1015.6
20260508112713 61 263 4.0 0.0 0.00 0.00 0.00 86 1015.6
20260508112211 61 211 3.0 0.0 0.00 0.00 0.00 87 1015.9
20260508111710 61 290 3.0 0.0 0.00 0.00 0.00 87 1016.3
20260508111211 62 281 4.0 0.0 0.00 0.00 0.00 86 1016.3
20260508110713 62 294 4.0 0.0 0.00 0.00 0.00 86 1016.3
20260508110245 62 295 3.0 0.0 0.00 0.00 0.00 86 1015.9
20260508105746 62 139 3.0 0.0 0.00 0.00 0.00 85 1015.9
20260508105246 62 192 2.0 0.0 0.00 0.00 0.00 85 1015.9
20260508104745 62 232 2.0 0.0 0.00 0.00 0.00 85 1015.9
20260508104244 62 186 3.0 0.0 0.00 0.00 0.00 85 1016.3
20260508103745 62 177 0.0 0.0 0.00 0.00 0.00 84 1016.6
20260508103244 62 186 1.0 0.0 0.00 0.00 0.00 84 1016.6
20260508102743 62 191 1.0 0.0 0.00 0.00 0.00 84 1016.3
20260508102245 62 216 3.0 0.0 0.00 0.00 0.00 84 1016.3
20260508101743 62 243 3.0 0.0 0.00 0.00 0.00 84 1015.9
20260508101243 62 240 3.0 0.0 0.00 0.00 0.00 84 1015.6
20260508100743 62 219 3.0 0.0 0.00 0.00 0.00 85 1015.6
20260508100244 62 255 4.0 0.0 0.00 0.00 0.00 85 1016.3
20260508095742 62 248 2.0 0.0 0.00 0.00 0.00 86 1015.9
20260508095242 62 230 0.0 0.0 0.00 0.00 0.00 86 1015.6
20260508094742 62 127 0.0 0.0 0.00 0.00 0.00 86 1015.6
20260508094241 62 205 0.0 0.0 0.00 0.00 0.00 85 1015.9
20260508093744 62 204 6.0 0.0 0.00 0.00 0.00 85 1015.9
20260508093245 63 246 2.0 0.0 0.00 0.00 0.00 85 1015.9
20260508092742 63 182 0.0 0.0 0.00 0.00 0.00 84 1015.6
20260508092242 63 212 2.0 0.0 0.00 0.00 0.00 84 1015.2
20260508091742 63 250 2.0 0.0 0.00 0.00 0.00 83 1014.9
20260508091241 63 235 3.0 0.0 0.00 0.00 0.00 82 1015.2
20260508090743 63 160 4.0 0.0 0.00 0.00 0.00 82 1015.9
20260508090242 63 153 3.0 0.0 0.00 0.00 0.00 81 1016.3
20260508085743 63 277 3.0 0.0 0.00 0.00 0.00 81 1015.9
20260508085241 63 247 5.0 0.0 0.00 0.00 0.00 81 1015.6
20260508084742 63 158 4.0 0.0 0.00 0.00 0.00 81 1016.3
20260508084240 63 178 3.0 0.0 0.00 0.00 0.00 80 1016.6
20260508083741 63 229 3.0 0.0 0.00 0.00 0.00 80 1016.3
20260508083241 63 238 3.0 0.0 0.00 0.00 0.00 80 1016.3
20260508082739 63 182 3.0 0.0 0.00 0.00 0.00 79 1016.3
20260508082239 63 259 3.0 0.0 0.00 0.00 0.00 79 1016.3
20260508081739 63 226 3.0 0.0 0.00 0.00 0.00 78 1016.3
20260508081238 63 216 0.0 0.0 0.00 0.00 0.00 77 1016.3
20260508080737 63 222 0.0 0.0 0.00 0.00 0.00 77 1016.3
20260508080239 63 234 3.0 0.0 0.00 0.00 0.00 76 1016.3
20260508075740 63 265 0.0 0.0 0.00 0.00 0.00 76 1016.3
20260508075237 63 181 0.0 0.0 0.00 0.00 0.00 76 1016.3
20260508074738 64 207 0.0 0.0 0.00 0.00 0.00 75 1016.6
20260508074236 64 195 1.0 0.0 0.00 0.00 0.00 74 1016.9
20260508073737 64 247 1.0 0.0 0.00 0.00 0.00 74 1016.9
20260508073237 64 219 3.0 0.0 0.00 0.00 0.00 74 1016.9
20260508072735 64 243 2.0 0.0 0.00 0.00 0.00 73 1016.9
20260508072237 64 219 1.0 0.0 0.00 0.00 0.00 74 1016.9
20260508071737 64 240 0.0 0.0 0.00 0.00 0.00 74 1016.9
20260508071237 64 206 2.0 0.0 0.00 0.00 0.00 74 1016.9
20260508070736 64 221 3.0 0.0 0.00 0.00 0.00 73 1016.9
20260508070238 64 232 2.0 0.0 0.00 0.00 0.00 73 1016.9
20260508065736 64 216 2.0 0.0 0.00 0.00 0.00 74 1016.9
20260508065236 64 214 1.0 0.0 0.00 0.00 0.00 74 1016.9
20260508064735 64 214 2.0 0.0 0.00 0.00 0.00 74 1016.9
20260508064233 64 258 2.0 0.0 0.00 0.00 0.00 74 1017.3
20260508063735 64 208 2.0 0.0 0.00 0.00 0.00 74 1017.3
20260508063233 64 291 3.0 0.0 0.00 0.00 0.00 74 1016.9
20260508062734 64 235 2.0 0.0 0.00 0.00 0.00 74 1016.6
20260508062233 64 229 2.0 0.0 0.00 0.00 0.00 74 1016.3
20260508061736 64 234 3.0 0.0 0.00 0.00 0.00 74 1016.3
20260508061234 64 217 3.0 0.0 0.00 0.00 0.00 74 1015.9
20260508060735 64 276 4.0 0.0 0.00 0.00 0.00 74 1015.9
20260508060236 64 208 4.0 0.0 0.00 0.00 0.00 74 1016.3
20260508055737 64 222 4.0 0.0 0.00 0.00 0.00 73 1017.3
20260508055534 64 284 4.0 0.0 0.00 0.00 0.00 73 1017.3
20260508054731 64 287 4.0 0.0 0.00 0.00 0.00 73 1016.9
20260508054232 65 212 3.0 0.0 0.00 0.00 0.00 72 1017.3
20260508053732 65 221 3.0 0.0 0.00 0.00 0.00 72 1017.6
20260508053232 65 227 0.0 0.0 0.00 0.00 0.00 72 1017.6
20260508052732 65 182 2.0 0.0 0.00 0.00 0.00 72 1017.6
20260508052231 65 207 1.0 0.0 0.00 0.00 0.00 73 1017.6
20260508051730 65 206 2.0 0.0 0.00 0.00 0.00 72 1017.6
20260508051232 65 282 3.0 0.0 0.00 0.00 0.00 72 1017.6
20260508050731 64 223 2.0 0.0 0.00 0.00 0.00 72 1017.3
20260508050233 65 186 3.0 0.0 0.00 0.00 0.00 72 1017.3
20260508045731 64 171 3.0 0.0 0.00 0.00 0.00 71 1017.3
20260508045231 64 217 4.0 0.0 0.00 0.00 0.00 71 1017.6
20260508044732 64 229 5.0 0.0 0.00 0.00 0.00 71 1017.6
20260508044231 64 252 4.0 0.0 0.00 0.00 0.00 72 1017.6
20260508043730 64 240 5.0 0.0 0.00 0.00 0.00 72 1017.9
20260508043231 64 301 4.0 0.0 0.00 0.00 0.00 72 1016.6
20260508042729 64 261 3.0 0.0 0.00 0.00 0.00 72 1015.9
20260508042229 64 245 3.0 0.0 0.00 0.00 0.00 72 1015.9
20260508041729 64 122 3.0 0.0 0.00 0.00 0.00 72 1015.9
20260508041229 64 169 2.0 0.0 0.00 0.00 0.00 72 1015.9
20260508040732 64 239 4.0 0.0 0.00 0.00 0.00 72 1015.6
20260508040230 64 72 4.0 0.0 0.00 0.00 0.00 71 1015.9
20260508035728 65 202 3.0 0.0 0.00 0.00 0.00 71 1016.3
20260508035228 65 244 2.0 0.0 0.00 0.00 0.00 70 1016.6
20260508034728 65 205 3.0 0.0 0.00 0.00 0.00 70 1016.6
20260508034229 65 99 3.0 0.0 0.00 0.00 0.00 70 1016.6
20260508033727 65 222 3.0 0.0 0.00 0.00 0.00 70 1016.9
20260508033228 65 261 4.0 0.0 0.00 0.00 0.00 69 1016.9
20260508032727 65 280 4.0 0.0 0.00 0.00 0.00 69 1016.9
20260508032229 65 189 3.0 0.0 0.00 0.00 0.00 69 1017.3
20260508031728 65 246 3.0 0.0 0.00 0.00 0.00 69 1017.3
20260508031229 65 146 3.0 0.0 0.00 0.00 0.00 69 1017.3
20260508030728 65 239 3.0 0.0 0.00 0.00 0.00 68 1017.6
20260508030228 65 230 4.0 0.0 0.00 0.00 0.00 68 1017.6
20260508025729 65 231 6.0 0.0 0.00 0.00 0.00 68 1017.6
20260508025226 65 281 4.0 0.0 0.00 0.00 0.00 69 1017.6
20260508024727 65 200 3.0 0.0 0.00 0.00 0.00 70 1017.3
20260508024226 65 261 2.0 0.0 0.00 0.00 0.00 71 1017.3
20260508023726 64 243 2.0 0.0 0.00 0.00 0.00 74 1017.3
20260508023225 64 219 2.0 0.0 0.00 0.00 0.00 75 1017.3
20260508022726 64 227 1.0 0.0 0.00 0.00 0.00 75 1017.3
20260508022226 63 228 0.0 0.0 0.00 0.00 0.00 75 1016.9
20260508021726 63 203 0.0 0.0 0.00 0.00 0.00 76 1016.9
20260508021227 63 232 1.0 0.0 0.00 0.00 0.00 76 1017.3
20260508020727 63 205 1.0 0.0 0.00 0.00 0.00 76 1016.9
20260508020225 63 187 1.0 0.0 0.00 0.00 0.00 75 1016.6
20260508015725 64 203 2.0 0.0 0.00 0.00 0.00 74 1016.3
20260508015227 64 155 2.0 0.0 0.00 0.00 0.00 74 1016.3
20260508014725 65 174 2.0 0.0 0.00 0.00 0.00 72 1016.6
20260508014226 65 190 2.0 0.0 0.00 0.00 0.00 70 1016.3
20260508013726 65 203 0.0 0.0 0.00 0.00 0.00 69 1016.3
20260508013224 65 203 2.0 0.0 0.00 0.00 0.00 68 1015.9
20260508012724 66 178 2.0 0.0 0.00 0.00 0.00 68 1015.9
20260508012223 66 264 3.0 0.0 0.00 0.00 0.00 65 1015.9
20260508011724 66 220 3.0 0.0 0.00 0.00 0.00 65 1015.9
20260508011226 66 250 3.0 0.0 0.00 0.00 0.00 64 1015.9
20260508010722 66 281 4.0 0.0 0.00 0.00 0.00 64 1015.9
20260508010225 66 287 6.0 0.0 0.00 0.00 0.00 65 1015.6
20260508005722 66 269 4.0 0.0 0.00 0.00 0.00 66 1015.2
20260508005222 66 266 5.0 0.0 0.00 0.00 0.00 66 1014.9
20260508004724 66 229 3.0 0.0 0.00 0.00 0.00 67 1014.6
20260508004221 66 247 5.0 0.0 0.00 0.00 0.00 67 1014.2
20260508003720 67 189 5.0 0.0 0.00 0.00 0.00 66 1013.9
20260508003222 67 226 6.0 0.0 0.00 0.00 0.00 66 1014.2
20260508002721 67 131 8.0 0.0 0.00 0.00 0.00 65 1014.2
20260508002220 67 105 5.0 0.0 0.00 0.00 0.00 65 1014.9
20260508001720 67 118 4.0 0.0 0.00 0.00 0.00 65 1015.2
20260508001221 67 79 6.0 0.0 0.00 0.00 0.00 64 1015.6
20260508000720 67 163 6.0 0.0 0.00 0.00 0.00 65 1015.9
20260508000222 68 69 6.0 0.0 0.00 0.00 0.00 64 1015.9
20260507235722 68 204 4.0 0.0 0.00 0.00 0.00 64 1016.3
20260507235220 68 147 5.0 0.0 0.00 0.00 0.00 63 1016.3
20260507234721 68 102 5.0 0.0 0.00 0.00 0.00 63 1016.6
20260507234222 68 173 4.0 0.0 0.00 0.00 0.00 64 1016.9
20260507233720 68 139 5.0 0.0 0.00 0.00 0.00 63 1016.9
20260507233219 68 141 5.0 0.0 0.00 0.00 0.00 62 1016.9
20260507232722 68 254 5.0 0.0 0.00 0.00 0.00 62 1016.9
20260507232218 68 215 6.0 0.0 0.00 0.00 0.00 61 1016.9
20260507231720 69 301 5.0 0.0 0.00 0.00 0.00 63 1016.9
20260507231218 69 168 6.0 0.0 0.00 0.00 0.00 63 1016.9
20260507230717 69 249 7.0 0.0 0.00 0.00 0.00 63 1017.3
20260507230217 69 222 4.0 0.0 0.00 0.00 0.00 63 1017.3
20260507225718 69 98 5.0 0.0 0.00 0.00 0.00 64 1017.6
20260507225218 69 235 4.0 0.0 0.00 0.00 0.00 63 1017.3
20260507224716 69 247 4.0 0.0 0.00 0.00 0.00 63 1017.3
20260507224217 69 335 4.0 0.0 0.00 0.00 0.00 64 1017.3
20260507223717 70 237 4.0 0.0 0.00 0.00 0.00 63 1017.3
20260507223217 70 275 7.0 0.0 0.00 0.00 0.00 63 1017.6
20260507222717 70 92 7.0 0.0 0.00 0.00 0.00 63 1017.6
20260507222216 69 233 8.0 0.0 0.00 0.00 0.00 63 1017.6
20260507221717 70 260 6.0 0.0 0.00 0.00 0.00 64 1017.6
20260507221218 69 285 6.0 0.0 0.00 0.00 0.00 64 1017.3
20260507220715 69 169 7.0 0.0 0.00 0.00 0.00 65 1017.6
20260507220215 68 284 8.0 0.0 0.00 0.00 0.00 64 1017.3
20260507215717 68 95 8.0 0.0 0.00 0.00 0.00 64 1017.6
20260507215215 68 271 7.0 0.0 0.00 0.00 0.00 64 1017.6
20260507214715 68 275 6.0 0.0 0.00 0.00 0.00 64 1017.6
20260507214214 68 236 4.0 0.0 0.00 0.00 0.00 65 1017.9
20260507213717 68 243 4.0 0.0 0.00 0.00 0.00 66 1017.9
20260507213216 68 247 5.0 0.0 0.00 0.00 0.00 65 1017.9
20260507212714 68 297 8.0 0.0 0.00 0.00 0.00 65 1017.6
20260507212218 68 292 7.0 0.0 0.00 0.00 0.00 66 1017.6
20260507211715 68 254 7.0 0.0 0.00 0.00 0.00 66 1017.9